Torna al catalogo

ONEWEB-0705

AttivoComunicazioniPO
NORAD 61610·PAYLOAD·🇬🇧 United Kingdom

Lanciato Oct 20, 2024 da Vandenberg Space Force Base

Loading…

Prossimi Passaggi (prossime 24 ore)

TLE

AggiornatoSource: CelesTrak SupGP

Epoca: Sep 14, 2026, 23:08 UTC

1 61610C 24188S   26257.96403192 -.00001060  00000+0 -30388-2 0  2572
2 61610  87.8909  18.3908 0001135 135.1694 304.2937 13.10373321    18

Traccia ONEWEB-0705 in tempo reale con AllMySat

Download on the App Store